[[{"header":{"parameterUnit":"m.s-1","parameterCategory":1,"la1":30.2991,"la2":30.254,"lo1":-89.0895,"lo2":-89.0444,"dy":0.0017,"dx":0.0017,"nx":28,"ny":28,"refTime":"2025-11-09T03:00:00:Z","depth":0,"parameterNumber":2,"parameterNumberName":"U-component_of_WINDS"},"data":[0,0,0,0,0,0,0,0,0,0,0,0,0,0,0,0,0,0,0,0,0,0,0,0,0,0,0,0,0,0,0,0,0,0,0,0,0,0,0,0,0,0,0,0,0,0,0,0,0,0,0,0,0,0,0,0,0,0,0.3253,0.3253,0,0.3267,0.3268,0.3268,0.3265,0.3265,0.3265,0.3265,0.3281,0.3282,0.3282,0,0,0,0,0,0,0,0,0,0,0,0,0,0.3224,0.3224,0.3253,0.3253,0.3253,0.3267,0.3268,0.3268,0.3265,0.3265,0.3265,0.3264,0.3281,0.3281,0.3282,0,0,0,0,0,0,0,0,0,0,0,0,0,0.3237,0.3224,0.3253,0.3254,0.3254,0.3267,0.3268,0.3268,0.3265,0.3265,0.3265,0.3264,0.328,0.3281,0.3282,0.3296,0,0,0.3285,0.3286,0,0,0,0,0,0,0,0,0.3236,0.3238,0.3253,0.3254,0.3254,0.3264,0.3263,0.3277,0.3265,0.3261,0.3265,0.3264,0.3276,0.3277,0.3281,0.3297,0.3298,0.3286,0.3286,0.3287,0.3287,0,0,0,0,0,0,0,0.3235,0.3238,0.3259,0.3254,0.3254,0.3254,0.3255,0.3266,0.327,0.3261,0.3261,0.3263,0.3276,0.328,0.3281,0.3298,0.3286,0.3286,0.3287,0.3287,0.3326,0.3326,0,0,0,0,0,0,0.3234,0.3237,0.3258,0.3259,0.3244,0.3254,0.3256,0.3261,0.327,0.3271,0.3263,0.3263,0.3278,0.328,0.3282,0.3298,0.3287,0.3288,0.3288,0.3325,0.3326,0.3326,0,0,0,0,0,0,0.3234,0.3236,0.3258,0.3248,0.3251,0.3255,0.3261,0.3262,0.3266,0.3272,0.3273,0.3266,0.3278,0.328,0.3292,0.3298,0.3288,0.3289,0.3325,0.3325,0.3326,0.3331,0,0,0,0,0,0,0.3233,0.3236,0.3241,0.3248,0.3251,0.3268,0.3262,0.3262,0.3267,0.3267,0.3275,0.3276,0.3278,0.3291,0.3293,0.33,0.329,0.3324,0.3325,0.3326,0.333,0.3332,0.3333,0,0,0,0,0,0.3232,0.3242,0.3241,0.3244,0.3258,0.3268,0.327,0.3272,0.3268,0.3273,0.3277,0.3276,0.3297,0.3292,0.3295,0.3302,0.3324,0.3325,0.3326,0.333,0.3331,0.3333,0,0,0,0,0,0,0.3237,0.3243,0.3242,0.3256,0.3261,0.3268,0.3275,0.3274,0.3281,0.328,0.3282,0.3284,0.3296,0.33,0.3294,0.3315,0.331,0.3312,0.3312,0.3314,0.3315,0.3314,0.3291,0,0,0,0,0,0.3239,0.3247,0.3253,0.3264,0.3267,0.327,0.3275,0.3275,0.3282,0.3284,0.3289,0.3295,0.3303,0.3309,0.3317,0.3331,0.3332,0.3337,0.3338,0.3339,0.334,0.3347,0.3349,0.3329,0.3329,0.3329,0,0,0.3245,0.325,0.3255,0.3265,0.3269,0.3277,0.3272,0.3281,0.3287,0.3286,0.3297,0.3301,0.3308,0.3321,0.3327,0.3324,0.3346,0.334,0.3341,0.3342,0.3348,0.335,0.3352,0.333,0.333,0.333,0,0,0.326,0.3264,0.3273,0.3278,0.3284,0.3286,0.3288,0.3295,0.3297,0.3308,0.3307,0.3314,0.3329,0.3333,0.3338,0.3353,0.3352,0.3355,0.3362,0.3369,0.337,0.3372,0.3377,0.3379,0.3357,0.3357,0.3357,0,0.3266,0.3278,0.3278,0.3287,0.3292,0.329,0.3299,0.3304,0.3313,0.3316,0.3313,0.333,0.3335,0.3348,0.3352,0.3356,0.3358,0.3355,0.337,0.3372,0.3373,0.3378,0.3379,0.3357,0.3357,0.3357,0.3357,0,0.3285,0.3293,0.33,0.3308,0.3313,0.3322,0.3324,0.3329,0.3329,0.3332,0.3343,0.3348,0.3357,0.336,0.3361,0.3374,0.3372,0.337,0.3365,0.3375,0.3379,0.3381,0.3358,0.3357,0.3357,0.3357,0,0,0.3304,0.3311,0.3313,0.3317,0.3323,0.333,0.3338,0.3346,0.335,0.3356,0.3364,0.3375,0.3373,0.3378,0.3378,0.3384,0.3395,0.3381,0.3381,0.3383,0.3409,0.3411,0.3413,0.3394,0.3395,0.3395,0.3408,0,0.3318,0.3333,0.3334,0.3348,0.3355,0.3353,0.336,0.3365,0.3367,0.3374,0.3377,0.3384,0.3381,0.3384,0.3389,0.3393,0.34,0.3392,0.3401,0.3401,0.3399,0.3415,0.3417,0.3429,0.341,0.341,0.3411,0,0.3338,0.3343,0.3358,0.3362,0.3365,0.3372,0.3379,0.3385,0.339,0.3392,0.3396,0.3396,0.3405,0.3399,0.3411,0.3406,0.3409,0.3411,0.3412,0.3413,0.3407,0.3416,0.3434,0.3435,0.3413,0.3413,0.3413,0,0.3349,0.3361,0.337,0.3373,0.3379,0.3384,0.3387,0.3391,0.3396,0.3402,0.3404,0.3411,0.3415,0.3421,0.3422,0.3418,0.3434,0.3429,0.3435,0.3435,0.3439,0.3439,0.3457,0.3442,0.3442,0.3442,0.3442,0,0.3366,0.3374,0.3376,0.3382,0.3391,0.3392,0.3401,0.3404,0.3408,0.3414,0.3413,0.3419,0.3421,0.3427,0.3429,0.3438,0.344,0.3441,0.3441,0.3441,0.3441,0.3444,0.3443,0.3442,0.3442,0.3442,0.3442,0,0.338,0.3382,0.3392,0.3396,0.3398,0.3404,0.3408,0.3414,0.3415,0.3424,0.3426,0.3428,0.3436,0.3438,0.3447,0.3447,0.3458,0.3458,0.3457,0.3456,0.3463,0.3462,0.3483,0.3486,0.3469,0.3469,0.3469,0,0.339,0.3397,0.3402,0.3406,0.3408,0.3415,0.3419,0.3419,0.3424,0.343,0.3435,0.3442,0.3447,0.3459,0.3462,0.3469,0.3468,0.3475,0.3469,0.3469,0.3468,0.3467,0.3468,0.3476,0.3477,0.3477,0.3477,0,0.3408,0.3408,0.3414,0.342,0.3425,0.3429,0.3434,0.3437,0.3438,0.3443,0.345,0.3454,0.3463,0.347,0.3476,0.3479,0.3478,0.3478,0.348,0.348,0.3479,0.3479,0.3459,0.3478,0.3478,0.3478,0.3478,0.3478,0.3421,0.3426,0.343,0.3436,0.344,0.3444,0.3449,0.3451,0.3457,0.3463,0.3463,0.3471,0.3475,0.3484,0.3487,0.3493,0.3491,0.3494,0.3494,0.3495,0.3495,0.3478,0.3494,0.3494,0.3494,0.3494,0.3494,0,0.3438,0.344,0.3446,0.3452,0.3457,0.3455,0.3459,0.3463,0.347,0.3474,0.3479,0.3487,0.3493,0.3496,0.3503,0.3507,0.3506,0.3508,0.3508,0.3509,0.3497,0.3494,0.3509,0.3509,0.3509,0.3509,0.3509,0.3509,0.3448,0.3457,0.3457,0.3467,0.3469,0.3476,0.3479,0.3483,0.3486,0.3494,0.3499,0.3501,0.3505,0.3511,0.3517,0.3517,0.352,0.3522,0.3522,0.3511,0.351,0.3508,0.3506,0.3522,0.3522,0.3534,0.3534,0.3534]},{"header":{"parameterUnit":"m.s-1","parameterCategory":1,"la1":30.2991,"la2":30.254,"lo1":-89.0895,"lo2":-89.0444,"dy":0.0017,"dx":0.0017,"nx":28,"ny":28,"refTime":"2025-11-09T03:00:00:Z","depth":0,"parameterNumber":3,"parameterNumberName":"V-component_of_WINDS"},"data":[0,0,0,0,0,0,0,0,0,0,0,0,0,0,0,0,0,0,0,0,0,0,0,0,0,0,0,0,0,0,0,0,0,0,0,0,0,0,0,0,0,0,0,0,0,0,0,0,0,0,0,0,0,0,0,0,0,0,2.7389,2.7389,0,2.7383,2.7383,2.7383,2.7329,2.7328,2.7327,2.7325,2.7319,2.732,2.7321,0,0,0,0,0,0,0,0,0,0,0,0,0,2.7353,2.7354,2.7389,2.7389,2.7389,2.7383,2.7383,2.7383,2.733,2.7328,2.7326,2.7325,2.7318,2.732,2.7321,0,0,0,0,0,0,0,0,0,0,0,0,0,2.736,2.7354,2.7389,2.7362,2.7359,2.7383,2.7383,2.7383,2.733,2.7328,2.7326,2.7324,2.7318,2.7319,2.7321,2.7371,0,0,2.7326,2.7326,0,0,0,0,0,0,0,0,2.736,2.7361,2.7366,2.7363,2.7361,2.7355,2.7368,2.7379,2.733,2.7341,2.7325,2.7323,2.7332,2.7333,2.7336,2.737,2.737,2.7326,2.7327,2.7328,2.7328,0,0,0,0,0,0,0,2.7359,2.7361,2.7387,2.7366,2.7363,2.7349,2.7348,2.737,2.7348,2.734,2.7336,2.7336,2.733,2.7334,2.7335,2.737,2.7326,2.7327,2.7328,2.7329,2.7445,2.7447,0,0,0,0,0,0,2.7363,2.7361,2.7387,2.7386,2.7355,2.7351,2.735,2.7359,2.7347,2.7344,2.7338,2.7334,2.7333,2.7333,2.7335,2.7392,2.7328,2.7329,2.733,2.7443,2.7446,2.7448,0,0,0,0,0,0,2.7362,2.7366,2.7387,2.7373,2.7374,2.7354,2.7364,2.736,2.7363,2.7346,2.7342,2.7346,2.7331,2.7333,2.7362,2.7392,2.733,2.7331,2.744,2.7444,2.7447,2.7508,0,0,0,0,0,0,2.7361,2.7366,2.7385,2.7374,2.7375,2.7415,2.7366,2.7361,2.7366,2.7361,2.7352,2.7349,2.733,2.736,2.7364,2.7393,2.7332,2.7438,2.7442,2.7446,2.7504,2.7513,2.7522,0,0,0,0,0,2.736,2.7402,2.7386,2.7389,2.7399,2.7417,2.7418,2.7395,2.7369,2.7388,2.7376,2.7349,2.7388,2.7364,2.7367,2.7397,2.7436,2.7441,2.7445,2.75,2.7511,2.7521,0,0,0,0,0,0,2.7416,2.74,2.7382,2.7421,2.7421,2.7408,2.7431,2.7408,2.7415,2.7409,2.738,2.7379,2.7413,2.7408,2.7381,2.7445,2.7407,2.7413,2.7447,2.7458,2.7467,2.7468,2.7334,0,0,0,0,0,2.7434,2.745,2.7434,2.7471,2.7471,2.7451,2.7458,2.7441,2.7439,2.7438,2.7429,2.7428,2.744,2.7449,2.7458,2.7502,2.75,2.7525,2.7534,2.7541,2.7546,2.757,2.7581,2.7464,2.7464,2.7464,0,0,2.7469,2.7462,2.7474,2.7482,2.7479,2.7497,2.7451,2.7472,2.7484,2.7441,2.7469,2.7462,2.7459,2.7497,2.7512,2.7493,2.7578,2.7547,2.7553,2.7555,2.7576,2.7587,2.7597,2.7467,2.7466,2.7466,0,0,2.7542,2.7538,2.7568,2.7567,2.7564,2.755,2.7558,2.7548,2.7542,2.7569,2.7538,2.7552,2.7573,2.7572,2.7575,2.7648,2.7623,2.7652,2.7699,2.7722,2.7731,2.7739,2.7766,2.7776,2.7657,2.7657,2.7658,0,2.7586,2.7612,2.7586,2.7609,2.7614,2.7576,2.7606,2.7606,2.7606,2.761,2.7588,2.7614,2.7609,2.7646,2.7664,2.7667,2.7675,2.7653,2.7732,2.774,2.7747,2.7772,2.7782,2.7661,2.7661,2.766,2.766,0,2.7666,2.7684,2.7709,2.7711,2.7718,2.7744,2.7723,2.7733,2.7715,2.7703,2.7732,2.7725,2.7733,2.774,2.7722,2.7774,2.7763,2.7737,2.7699,2.7762,2.7785,2.7794,2.7666,2.7665,2.7664,2.7663,0,0,2.7775,2.7763,2.7772,2.7773,2.7767,2.778,2.7805,2.7813,2.7822,2.7824,2.7844,2.7862,2.7839,2.7841,2.7823,2.7843,2.7902,2.7815,2.7814,2.7832,2.796,2.798,2.7992,2.7886,2.7887,2.7889,2.7961,0,2.7846,2.7888,2.7866,2.791,2.7927,2.7891,2.7912,2.7911,2.7901,2.7913,2.7901,2.7916,2.7883,2.7884,2.7903,2.7891,2.7928,2.7886,2.7904,2.7905,2.7907,2.8004,2.8025,2.8093,2.7969,2.7971,2.7972,0,2.7934,2.794,2.7987,2.7978,2.7984,2.8004,2.8009,2.8022,2.8019,2.801,2.8014,2.7991,2.8014,2.7976,2.8008,2.798,2.7986,2.7982,2.7984,2.7985,2.7943,2.8009,2.8114,2.8125,2.7986,2.7985,2.7984,0,2.801,2.8029,2.8059,2.8061,2.8051,2.8066,2.8063,2.8058,2.8065,2.807,2.8074,2.8081,2.8086,2.8092,2.8072,2.8046,2.8106,2.8066,2.81,2.8101,2.8115,2.8115,2.8224,2.8118,2.8118,2.8118,2.8117,0,2.8092,2.8122,2.8093,2.8112,2.8145,2.8119,2.8152,2.8144,2.8141,2.8157,2.8127,2.8143,2.8115,2.8128,2.8112,2.8141,2.8143,2.8137,2.8132,2.814,2.8141,2.8144,2.814,2.812,2.812,2.8119,2.8119,0,2.8182,2.8164,2.8195,2.8184,2.8181,2.8206,2.8196,2.8213,2.82,2.8222,2.8225,2.8206,2.8221,2.8201,2.8213,2.8202,2.8242,2.823,2.8243,2.824,2.8276,2.8273,2.8392,2.8406,2.829,2.8291,2.8292,0,2.8236,2.8258,2.8249,2.8258,2.8257,2.8272,2.8279,2.8254,2.8262,2.8261,2.8278,2.829,2.8298,2.8322,2.831,2.8319,2.8307,2.8348,2.8308,2.8316,2.8309,2.8308,2.8311,2.8356,2.8358,2.8359,2.836,0,2.8334,2.8324,2.8335,2.8343,2.8352,2.8357,2.8359,2.8368,2.8343,2.8353,2.8368,2.8374,2.8386,2.8399,2.8404,2.84,2.8377,2.8372,2.8381,2.8389,2.8397,2.8394,2.8267,2.837,2.8369,2.8368,2.8368,2.8367,2.8408,2.8426,2.8423,2.8436,2.8436,2.8439,2.8455,2.8444,2.8456,2.8465,2.8449,2.8468,2.8465,2.847,2.8469,2.8483,2.8465,2.8477,2.8481,2.8484,2.849,2.8394,2.8484,2.8484,2.8483,2.8483,2.8483,0,2.8504,2.8501,2.8513,2.8518,2.8529,2.8505,2.8507,2.8517,2.8534,2.8534,2.8542,2.8559,2.8571,2.8559,2.8568,2.8582,2.8571,2.8585,2.8585,2.8584,2.8505,2.8497,2.8594,2.8594,2.8594,2.8594,2.8594,2.8594,2.8556,2.8586,2.8576,2.8606,2.8601,2.862,2.8623,2.8626,2.8626,2.8646,2.8656,2.8648,2.8643,2.8652,2.8662,2.8658,2.8663,2.8682,2.8674,2.8601,2.859,2.8579,2.8572,2.8683,2.8683,2.8752,2.8753,2.8753]}]]